This is the latest recevied weather packets stored in our database for station/object VE9LJW. If no packets are shown the sender has not sent any weather packets the latest 10 day(s).
| Time | Temp. | Humidity | Pressure | Rain* | Wind** | Luminosity | Snow |
|---|---|---|---|---|---|---|---|
| 1778005447 | 25° C | 50% | 1002.3 hPa | 0 mm | - | 620 W/m² | - |
| 1778005143 | 25.56° C | 48% | 1002.5 hPa | 0 mm | - | 657 W/m² | - |
| 1778004841 | 25.56° C | 48% | 1002.9 hPa | 0 mm | - | 607 W/m² | - |
| 1778004537 | 25.56° C | 47% | 1003 hPa | 0 mm | - | 576 W/m² | - |
| 1778004234 | 25.56° C | 48% | 1002.9 hPa | 0 mm | - | 642 W/m² | - |
| 1778003931 | 25.56° C | 47% | 1003.3 hPa | 0 mm | - | 535 W/m² | - |
| 1778003627 | 25.56° C | 46% | 1003.3 hPa | 0 mm | - | 670 W/m² | - |
| 1778003323 | 25.56° C | 47% | 1003.3 hPa | 0 mm | - | 648 W/m² | - |
| 1778003021 | 25.56° C | 46% | 1003.4 hPa | 0 mm | - | 656 W/m² | - |
| 1778002717 | 25° C | 47% | 1003.6 hPa | 0 mm | - | 681 W/m² | - |
| 1778002414 | 25.56° C | 46% | 1003.7 hPa | 0 mm | - | 668 W/m² | - |
| 1778002111 | 25.56° C | 47% | 1003.5 hPa | 0 mm | - | 661 W/m² | - |
| 1778001808 | 25.56° C | 46% | 1003.6 hPa | 0 mm | - | 673 W/m² | - |
| 1778001508 | 25.56° C | 47% | 1003.2 hPa | 0 mm | - | 670 W/m² | - |
| 1778001205 | 25.56° C | 46% | 1003.7 hPa | 0 mm | - | 688 W/m² | - |
| 1778000901 | 25.56° C | 46% | 1003.7 hPa | 0 mm | - | 702 W/m² | - |
| 1778000598 | 26.11° C | 47% | 1003.8 hPa | 0 mm | - | 461 W/m² | - |
| 1778000294 | 25.56° C | 47% | 1003.8 hPa | 0 mm | - | 670 W/m² | - |
| 1777999990 | 25.56° C | 46% | 1003.8 hPa | 0 mm | - | 684 W/m² | - |
| 1777999685 | 25.56° C | 46% | 1003.8 hPa | 0 mm | - | 705 W/m² | - |
| 1777999383 | 25.56° C | 47% | 1004.3 hPa | 0 mm | - | 684 W/m² | - |
| 1777999081 | 25.56° C | 48% | 1004 hPa | 0 mm | - | 823 W/m² | - |
| 1777998779 | 24.44° C | 49% | 1004.2 hPa | 0 mm | - | 502 W/m² | - |
| 1777998476 | 23.89° C | 50% | 1004.2 hPa | 0 mm | - | 313 W/m² | - |
| 1777998173 | 24.44° C | 50% | 1004.3 hPa | 0 mm | - | 246 W/m² | - |
* Rain latest hour (hover to see other rain measurements)
** Current wind speed in m/s (hover to see current wind gust speed)